Location: Bucquoy
(50.1391°N, 2.7097°E)
Time: 07:51:02
(UTC+00:00)

Cosmos 2297 - Pass Details

Date: 06 May 2021
Orbit: 837 x 857 km, 71.0° (Epoch: 21 June)

Event Time Altitude Azimuth Distance (km) Brightness Sun altitude
Exits shadow 00:25:51 38° 240° (WSW) 1,286 4.3 -22.7°
Maximum altitude 00:27:57 61° 303° (WNW) 961 4.0 -22.7°
Drops below altitude 10° 00:33:36 10° 24° (NNE) 2,478 7.2 -22.5°
Sets 00:36:05 0° 28° (NNE) 3,414 8.2 -22.4°
